Regional Weather Roundup
Issued by NWS Grand Forks, ND

Home | Current Version | Previous Version | Text Only | Print | Product List | Glossary Off
Versions: 1 2 3 4 5 6 7 8 9 10 11 12 13 14 15 16 17 18 19 20 21 22 23 24 25 26 27 28 29 30 31 32 33 34 35 36 37 38 39 40 41 42 43 44 45 46 47 48 49 50

000
ASUS43 KFGF 201310
RWRFGF
PRAIRIE TO PINES  WEATHER ROUNDUP
NATIONAL WEATHER SERVICE EASTERN NORTH DAKOTA/GRAND FORKS ND
800 AM CDT FRI APR 20 2018

 **SATELLITE DATA USED TO AUGMENT SKY COVER AT AUTOMATED STATIONS**
 *****  WEATHER ACROSS EASTERN NORTH DAKOTA  *****

CITY           SKY/WX    TMP DP  RH WIND       PRES   REMARKS
GRAND FORKS    FAIR      35  32  88 SE5       30.40R
GRAND FRKS AFB FAIR      36  32  85 CALM      30.39R
GRAND FRKS NWS   N/A     38  31  77 SW3       30.38R
DEVILS LAKE    FAIR      32  30  92 SE3       30.38R
FARGO          FAIR      37  32  82 S7        30.42S
WAHPETON ARPT  FAIR      34  30  86 SE7       30.44S
$$

 ***** WEATHER ACROSS CENTRAL AND WESTERN NORTH DAKOTA  *****

CITY           SKY/WX    TMP DP  RH WIND       PRES   REMARKS
BISMARCK       FAIR      32  25  75 NE7       30.33R
MINOT          FAIR      34  30  85 CALM      30.30R
JAMESTOWN      FAIR      34  30  85 S6        30.37R
MINOT AFB      FAIR      31  31  99 SE5       30.29R
GARRISON         N/A     32  27  81 E8        30.29R WCI  25
WILLISTON      FAIR      36  31  82 E7        30.23S
DICKINSON      FAIR      33  28  81 S12       30.20R WCI  24
HETTINGER      FAIR      31  27  85 E9        30.22R WCI  23
$$

 *****  OTHER AIRPORT OBSERVATIONS IN OUR AREA  *****

CITY           SKY/WX    TMP DP  RH WIND       PRES   REMARKS
WALHALLA       FAIR      36  36 100 CALM      30.37S
GRAFTON AIRPOR FAIR      34  34 100 S6        30.41S
VALLEY CITY AR FAIR      32  34 100 S5        30.41R
CANDO          FAIR      32  32 100 SE5       30.38R
CAVALIER APRT    N/A     36  34  93 CALM      30.38R
GWINNER          N/A     34  28  80 CALM      30.42R
SHEYENNE NWR     N/A     35  35 100 E2        29.95S
ROLLA          FAIR      32  34 100 S6        30.35R
 ***** THE ABOVE OBSERVATIONS ARE NON NWS ARE NOT QUALITY
       CONTROLLED AND MAY MIS-REPORT RAIN FOR SNOW...
$$

  *****  WEATHER ACROSS NORTHERN MINNESOTA  *****

CITY           SKY/WX    TMP DP  RH WIND       PRES   REMARKS
FLAG ISLAND    FAIR      30  25  80 SE3       30.39S
WARROAD        FAIR      37  30  75 S3        30.41S
ROSEAU         FAIR      36  30  80 S6        30.41R
HALLOCK        FAIR      36  32  87 SE6       30.39S
THF RVR FALLS  FAIR      34  30  85 SE6       30.42R
BAUDETTE       FAIR      33  26  75 CALM      30.41R
WASKISH        PTSUNNY   32  27  80 CALM      30.43R
CROOKSTON      FAIR      34  32  93 SE5       30.42S
STEPHEN NDAWN    N/A     36  32  87 SE5         N/A
GREENBUSH NDAW   N/A     36  30  80 S5          N/A
$$
  *****  WEATHER ACROSS CENTRAL AND WEST MINNESOTA  *****

CITY           SKY/WX    TMP DP  RH WIND       PRES   REMARKS
FOSSTON        FAIR      34  28  80 S6        30.43R
BEMIDJI        FAIR      32  26  78 CALM      30.43R
PARK RAPIDS    FAIR      33  28  81 S3        30.43R
ELBOW LAKE     FAIR      33  28  82 SE5       30.44F
WADENA         FAIR      32  28  86 CALM      30.45R
DETROIT LAKES  FAIR      34  30  86 CALM      30.44S
MOORHEAD       FAIR      36  30  80 SE3       30.44S
FERGUS FALLS   FAIR      36  28  75 SE6       30.43S
MORRIS MN      FAIR      34  28  80 SE6       30.43F
STAPLES        FAIR      30  25  80 CALM      30.45S
$$
  *****  WEATHER ELSEWHERE ACROSS MINNESOTA  *****

CITY           SKY/WX    TMP DP  RH WIND       PRES   REMARKS
DULUTH         FAIR      38  28  67 CALM      30.43R
INTRNTL FALLS  FAIR      33  27  78 CALM      30.41S
ELY            FAIR      27  19  74 CALM      30.42S
CLOQUET        FAIR      37  25  60 W3        30.44R
WHEATON        FAIR      32  30  93 SE6       30.46R
BRAINERD       FAIR      33  24  69 CALM      30.46R
HIBBING        FAIR      28  22  78 CALM      30.43R
ALEXANDRIA     FAIR      37  28  70 E3        30.45R
SAINT CLOUD    FAIR      31  30  96 CALM      30.48R
MINNEAPOLIS    FAIR      35  28  75 CALM      30.51R
$$

  *****  WEATHER ACROSS SOUTH DAKOTA  *****

CITY           SKY/WX    TMP DP  RH WIND       PRES   REMARKS
SIOUX FALLS    FAIR      34  22  61 SE5       30.42R
BROOKINGS      FAIR      33  23  66 SE12      30.41R WCI  24
WATERTOWN      FAIR      32  24  72 SE8       30.40R WCI  25
HURON          FAIR      32  24  72 SE9       30.39R WCI  24
SISSETON         N/A     32  29  88 SE6       30.41R
ABERDEEN       FAIR      32  27  81 SE3       30.39R
MITCHELL       FAIR      32  27  81 SE9       30.40R WCI  24
PIERRE         FAIR      35  31  85 SE14      30.29R
MOBRIDGE       FAIR      37  29  72 SE7       30.29R
RAPID CITY     FAIR      39  29  67 SE10      30.14S
$$

  *****  SOME WEATHER IN NEARBY STATES *****

CITY           SKY/WX    TMP DP  RH WIND       PRES   REMARKS
GLASGOW MT     FAIR      39  32  76 E13       30.15R
GREAT FALLS MT FAIR      30  27  88 SW7       30.12R WCI  23
CHEYENNE WY    FAIR      32  25  75 SE13      29.97R WCI  22
SCOTTSBLUFF NE FAIR      40  29  64 SE14      30.07R
OMAHA NE       PTSUNNY   38  28  67 SE7       30.44S
DES MOINES IA  CLOUDY    39  25  57 SE8       30.49R
DAVENPORT IA   FAIR      38  30  73 CALM      30.53S
CHICAGO IL     FAIR      43  24  47 N5        30.49S
EAU CLAIRE WI  FAIR      31  25  78 CALM      30.49S
LA CROSSE WI   FAIR      31  27  85 CALM      30.52S
$$

  *****  SOME NATIONAL WEATHER *****

CITY           SKY/WX    TMP DP  RH WIND       PRES   REMARKS
LA GUARDIA NY  FAIR      40  23  50 NW22G31   30.14R
RALEIGH NC     FAIR      48  32  53 VRB5      30.35R
ATLANTA GA     FAIR      47  32  56 E17       30.34R
NEW ORLEANS LA PTSUNNY   56  44  64 NE12G20   30.25S
OKLAHOMA CITY  PTSUNNY   45  34  65 SE16G24   30.29F
ALBUQUERQUE NM MOCLDY    51  18  27 SW14G22   29.90R
SALT LAKE CITY MOCLDY    55  32  41 N20G25    29.77R
LOS ANGELES CA FAIR      52  48  86 E7        30.11R
BOISE ID       FAIR      42  30  62 W6        30.07R
SEATTLE WA     MOCLDY    45  40  82 SE6       30.25S
$$

*** WEATHER ACROSS MANITOBA...SASKATCHEWAN AND ONTARIO ***
                ***ONTARIO***

CITY           SKY/WX    TMP DP  RH WIND       PRES   REMARKS
GERALDTON      MOSUNNY   28  14  54 CALM      30.39S
THUNDER BAY    SUNNY     34  23  64 SW5       30.43S
SIOUX LOOKOUT  MOSUNNY   34  16  47 S2        30.39R
TORONTO        MOSUNNY   34  19  55 N21G26    30.34R WCI  22
BIG TROUT LK   SUNNY     34  25  69 E7        30.45R
PICKLE LAKE    MOSUNNY   34  16  47 VRB2      30.38R
DRYDEN         MOSUNNY   37  14  38 S5        30.39R
KENORA         PTSUNNY   36  19  51 W3        30.39R
$$
                *** MANITOBA***

CITY           SKY/WX    TMP DP  RH WIND       PRES   REMARKS
BRANDON        PTSUNNY   32  30  93 NE6       30.35R
DAUPHIN        SUNNY     32  30  93 CALM      30.35R
ISLAND LAKE    SUNNY     28  23  80 CALM      30.41R
PILOT MOUND      N/A     36  34  93 SE5         N/A
THE PAS        SUNNY     30  21  69 SE9       30.30R WCI  22
THOMPSON       MOSUNNY   36  18  48 S5        30.29S
WINNIPEG       PTSUNNY   37  34  87 S3        30.38S
LYNN LAKE      SUNNY     36  27  69 SW12      30.14S
CHURCHILL      PTSUNNY   37  27  65 SW14G23   30.21F
GILLAM         MOSUNNY   39  18  41 S13       30.34S
$$
                ***SASKATCHEWAN***

CITY           SKY/WX    TMP DP  RH WIND       PRES   REMARKS
ESTEVAN        PTSUNNY   32  30  93 E10       30.26S FOG     WCI  24
KINDERSLEY     PTCLDY    36  32  87 S8        30.05S
LLOYDMINSTER   MOCLDY    36  32  87 S12G18    29.98F
PRINCE ALBERT  PTCLDY    34  28  80 SE3       30.19F
REGINA         PTCLDY    34  30  86 SE16      30.22S WCI  23
YORKTON        SUNNY     30  25  80 S6        30.29S WCI  24
N. BATTLEFORD  CLEAR     36  30  80 E12       30.09S
LA RONGE       MOCLDY    41  28  60 S14G21    30.08F
SASKATOON      PTCLDY    36  28  75 SE9       30.15F
SWIFT CURRENT  CLEAR     37  30  75 S17G23    30.08S
$$
NOTE: THESE ARE AUTOMATED STATIONS WITH LIMITED QUALITY CONTROL
      "FAIR" INDICATES FEW OR NO CLOUDS BELOW 12,000 FEET WITH NO
      SIGNIFICANT WEATHER AND/OR OBSTRUCTIONS TO VISIBILITY.
      SKY/WX - SKY CONDITION AND SIGNIFICANT WEATHER.
      TMP - AIR TEMPERATURE.    DP   - DEWPOINT TEMPERATURE.
      RH  - RELATIVE HUMIDITY.  PRES - PRESSURE.
      HX  - HEAT INDEX.         WCI  - WIND CHILL INDEX.
$




USA.gov is the U.S. government's official web portal to all federal, state and local government web resources and services.